Cincinnati, OH

8:16 PM EST on December 13, 2017 (GMT -0500)
Cincinnati Municipal-Lunken

Weather History for KLUK - October, 2012

Change the Weather History Date:

Tuesday, October 30, 2012

  Actual Average Record
Temperature  
Mean Temperature 40 °F -  
Max Temperature 45 °F 63 °F 82 °F (1971)
Min Temperature 35 °F 39 °F 25 °F (1966)
Degree Days  
Heating Degree Days 25    
Moisture  
Dew Point 35 °F    
Average Humidity 80    
Maximum Humidity 89    
Minimum Humidity 44    
Precipitation  
Precipitation 0.21 in - - ()
Sea Level Pressure  
Sea Level Pressure 29.64 in    
Wind  
Wind Speed 11 mph (NW)    
Max Wind Speed 21 mph    
Max Gust Speed 40 mph    
Visibility 8 miles    
Events Rain , Snow    
Averages and records for this station are not official NWS values.
T = Trace of Precipitation, MM = Missing Value Source: NWS Daily Summary

Daily Weather History Graph

Daily Weather History Graph

Search for Another Location

Airport or City:

Trip Planner

Search our weather history database for the weather conditions in past years. The results will help you decide how hot, cold, wet, or windy it might be!

Date:

Astronomy

Oct. 30, 2012 Rise Set
Actual Time 8:03 AM EDT 6:38 PM EDT
Civil Twilight 7:35 AM EDT 7:06 PM EDT
Nautical Twilight 7:04 AM EDT 7:37 PM EDT
Astronomical Twilight 6:33 AM EDT 8:08 PM EDT
Moon 7:08 PM EDT (10/30) 8:48 AM EDT (10/30)
Length of Visible Light 11h 30m
Length of Day
10h 34m
Full, 99% of the Moon is Illuminated
Oct 30
Full
Nov 6
Last Quarter
Nov 13
New
Nov 20
First Quarter
Nov 28
Full

Hourly Weather History & Observations

Time (EDT) Temp. Windchill Dew Point Humidity Pressure Visibility Wind Dir Wind Speed Gust Speed Precip Events Conditions
12:53 AM 45.0 °F 37.9 °F 24.1 °F 44% 29.73 in 10.0 mi NNW 16.1 mph 29.9 mph N/A   Overcast
1:53 AM 43.0 °F 36.8 °F 24.1 °F 47% 29.70 in 10.0 mi NNW 11.5 mph 40.3 mph 0.00 in Rain Light Rain
2:53 AM 41.0 °F 33.5 °F 26.6 °F 57% 29.68 in 10.0 mi NNW 13.8 mph 34.5 mph N/A Rain Light Rain
3:34 AM 39.2 °F 29.3 °F 30.2 °F 70% 29.66 in 10.0 mi NNW 20.7 mph 31.1 mph 0.00 in   Overcast
3:53 AM 37.9 °F 29.6 °F 30.9 °F 76% 29.65 in 10.0 mi NW 13.8 mph 23.0 mph 0.00 in Snow Light Snow
4:53 AM 36.0 °F 29.0 °F 32.0 °F 86% 29.64 in 6.0 mi NNW 9.2 mph 18.4 mph 0.04 in Rain Rain
5:20 AM 35.6 °F 29.9 °F 32.0 °F 87% 29.62 in 6.0 mi Variable 6.9 mph - 0.01 in Rain Rain
5:53 AM 35.1 °F 32.2 °F 32.0 °F 89% 29.62 in 6.0 mi Variable 3.5 mph - 0.03 in Rain Light Rain
6:46 AM 37.4 °F 30.8 °F 33.8 °F 87% 29.60 in 8.0 mi WNW 9.2 mph 17.3 mph 0.03 in Rain Light Rain
6:53 AM 37.0 °F 29.3 °F 33.1 °F 86% 29.60 in 7.0 mi WNW 11.5 mph 17.3 mph 0.03 in Rain Rain
7:53 AM 36.0 °F 30.3 °F 33.1 °F 89% 29.60 in 5.0 mi Variable 6.9 mph - 0.05 in Rain Rain
8:38 AM 37.4 °F 30.8 °F 33.8 °F 87% 29.59 in 6.0 mi NW 9.2 mph 19.6 mph 0.04 in Rain Rain
8:53 AM 37.0 °F 31.0 °F 33.1 °F 86% 29.60 in 4.0 mi NW 8.1 mph - 0.05 in Rain Rain
9:53 AM 39.0 °F 33.4 °F 35.1 °F 86% 29.60 in 6.0 mi NNW 8.1 mph 19.6 mph 0.01 in Rain Light Rain
10:53 AM 39.9 °F 34.5 °F 35.1 °F 83% 29.58 in 10.0 mi NW 8.1 mph 24.2 mph 0.00 in Rain Light Rain
11:53 AM 42.1 °F 37.1 °F 36.0 °F 79% 29.58 in 10.0 mi NW 8.1 mph 18.4 mph 0.00 in   Overcast
12:53 PM 42.1 °F 35.2 °F 36.0 °F 79% 29.58 in 6.0 mi NW 12.7 mph 24.2 mph 0.00 in Rain Light Rain
1:53 PM 42.1 °F 33.6 °F 37.0 °F 82% 29.58 in 4.0 mi WNW 18.4 mph 28.8 mph 0.00 in Rain Light Rain
2:53 PM 42.1 °F 37.1 °F 37.0 °F 82% 29.59 in 4.0 mi NW 8.1 mph 17.3 mph 0.00 in Rain Light Rain
3:53 PM 42.1 °F 35.7 °F 37.0 °F 82% 29.60 in 6.0 mi WNW 11.5 mph 20.7 mph 0.00 in Rain Light Rain
4:03 PM 42.8 °F 39.3 °F 37.4 °F 81% 29.59 in 6.0 mi Variable 5.8 mph 20.7 mph 0.00 in Rain Light Rain
4:53 PM 43.0 °F 37.7 °F 37.9 °F 82% 29.61 in 8.0 mi NW 9.2 mph - 0.00 in Rain Light Rain
5:53 PM 43.0 °F 37.7 °F 37.0 °F 80% 29.63 in 10.0 mi NW 9.2 mph 18.4 mph 0.00 in   Overcast
6:09 PM 42.8 °F 38.6 °F 37.4 °F 81% 29.63 in 5.0 mi Variable 6.9 mph - 0.00 in Rain Light Rain
6:40 PM 42.8 °F 36.6 °F 37.4 °F 81% 29.64 in 7.0 mi NNW 11.5 mph 20.7 mph 0.00 in Rain Light Rain
6:53 PM 42.1 °F 37.1 °F 37.0 °F 82% 29.65 in 10.0 mi NW 8.1 mph - 0.00 in   Overcast
7:06 PM 42.8 °F 38.0 °F 37.4 °F 81% 29.65 in 10.0 mi WNW 8.1 mph - N/A   Overcast
7:53 PM 42.1 °F 36.1 °F 37.0 °F 82% 29.67 in 8.0 mi NW 10.4 mph 20.7 mph N/A   Overcast
8:42 PM 42.8 °F 38.6 °F 37.4 °F 81% 29.67 in 7.0 mi NW 6.9 mph - 0.00 in   Overcast
8:53 PM 42.1 °F 37.7 °F 37.9 °F 85% 29.68 in 8.0 mi Variable 6.9 mph - 0.00 in   Overcast
9:53 PM 41.0 °F 38.0 °F 37.9 °F 89% 29.69 in 6.0 mi Variable 4.6 mph - N/A   Overcast
9:59 PM 41.0 °F 36.4 °F 37.4 °F 87% 29.68 in 6.0 mi NW 6.9 mph - N/A   Overcast
10:15 PM 41.0 °F 38.0 °F 37.4 °F 87% 29.68 in 9.0 mi Variable 4.6 mph - N/A   Overcast
10:53 PM 42.1 °F 40.2 °F 37.0 °F 82% 29.69 in 10.0 mi NW 3.5 mph - N/A   Overcast
11:53 PM 43.0 °F 38.8 °F 36.0 °F 76% 29.68 in 10.0 mi NW 6.9 mph - N/A   Overcast